• en France
  • Liste des pays
  • À 7 jours
  • Température de l'eau
  • Carte satellitaire
  • Carte météo
  • Widgets météo
  • user-avatar
    Se connecter

    Météo par heure à Uige

    Ce jour, 13 Novembre, Mardi

    Heure Température Précipitation Vent Pression Humidité
    00:00 +21°C° 0 mm 0 m/s 690 mmHg 86%
    01:00 +21°C° 0 mm 0 m/s 690 mmHg 93%
    02:00 +20°C° 0.1 mm 0 m/s 690 mmHg 95%
    03:00 +20°C° 0.1 mm 0 m/s 689 mmHg 96%
    04:00 +20°C° 0.1 mm 0 m/s 689 mmHg 97%
    05:00 +21°C° 0.3 mm 0 m/s 689 mmHg 95%
    06:00 +21°C° 0.3 mm 0 m/s 690 mmHg 93%
    07:00 +22°C° 0.3 mm 0 m/s 690 mmHg 91%
    08:00 +24°C° 1.3 mm 0 m/s 690 mmHg 83%
    09:00 +28°C° 1.3 mm 1 m/s 691 mmHg 75%
    10:00 +31°C° 1.3 mm 1 m/s 691 mmHg 68%
    11:00 +31°C° 1.5 mm 1 m/s 690 mmHg 64%
    12:00 +32°C° 1.5 mm 1 m/s 690 mmHg 60%
    13:00 +32°C° 1.5 mm 1 m/s 689 mmHg 57%
    14:00 +32°C° 0.6 mm 1 m/s 689 mmHg 59%
    15:00 +31°C° 0.6 mm 1 m/s 688 mmHg 62%
    16:00 +30°C° 0.6 mm 1 m/s 688 mmHg 64%
    17:00 +29°C° 0.7 mm 1 m/s 688 mmHg 71%
    18:00 +27°C° 0.7 mm 1 m/s 688 mmHg 77%
    19:00 +25°C° 0.7 mm 1 m/s 688 mmHg 83%
    20:00 +24°C° 0.4 mm 1 m/s 689 mmHg 86%
    21:00 +24°C° 0.4 mm 1 m/s 689 mmHg 90%
    22:00 +23°C° 0.4 mm 1 m/s 690 mmHg 93%
    23:00 +23°C° 0.2 mm 1 m/s 690 mmHg 94%

    Demain, 14 Novembre, Mercredi

    Heure Température Précipitation Vent Pression Humidité
    00:00 +23°C° 0.2 mm 1 m/s 689 mmHg 96%
    01:00 +23°C° 0.2 mm 1 m/s 689 mmHg 98%
    02:00 +23°C° 0.3 mm 1 m/s 689 mmHg 98%
    03:00 +23°C° 0.3 mm 1 m/s 689 mmHg 98%
    04:00 +22°C° 0.3 mm 1 m/s 689 mmHg 98%
    05:00 +23°C° 1.3 mm 1 m/s 689 mmHg 98%
    06:00 +23°C° 1.3 mm 1 m/s 690 mmHg 97%
    07:00 +23°C° 1.3 mm 1 m/s 690 mmHg 96%
    08:00 +24°C° 0.5 mm 1 m/s 691 mmHg 92%
    09:00 +25°C° 0.5 mm 1 m/s 691 mmHg 89%
    10:00 +24°C° 0.5 mm 0 m/s 691 mmHg 85%
    11:00 +24°C° 0.8 mm 0 m/s 691 mmHg 83%
    12:00 +27°C° 0.8 mm 1 m/s 690 mmHg 82%
    13:00 +28°C° 0.8 mm 1 m/s 690 mmHg 80%
    14:00 +27°C° 1 mm 1 m/s 690 mmHg 82%
    15:00 +26°C° 1 mm 1 m/s 689 mmHg 85%
    16:00 +24°C° 1 mm 0 m/s 689 mmHg 87%
    17:00 +23°C° 0.2 mm 0 m/s 689 mmHg 89%
    18:00 +22°C° 0.2 mm 0 m/s 689 mmHg 92%
    19:00 +21°C° 0.2 mm 0 m/s 690 mmHg 95%
    20:00 +21°C° 0 mm 0 m/s 690 mmHg 94%
    21:00 +20°C° 0 mm 0 m/s 690 mmHg 94%
    22:00 +20°C° 0 mm 0 m/s 691 mmHg 94%
    23:00 +20°C° 0 mm 0 m/s 691 mmHg 95%

    Après-demain, 15 Novembre, Jeudi

    Heure Température Précipitation Vent Pression Humidité
    00:00 +20°C° 0 mm 0 m/s 690 mmHg 95%
    01:00 +19°C° 0 mm 0 m/s 690 mmHg 96%
    02:00 +19°C° 0 mm 0 m/s 690 mmHg 96%
    03:00 +19°C° 0 mm 0 m/s 690 mmHg 96%
    04:00 +19°C° 0 mm 0 m/s 690 mmHg 96%
    05:00 +19°C° 0 mm 0 m/s 690 mmHg 95%
    06:00 +22°C° 0 mm 1 m/s 691 mmHg 94%
    07:00 +23°C° 0 mm 1 m/s 692 mmHg 93%
    08:00 +25°C° 0.1 mm 1 m/s 692 mmHg 83%
    09:00 +27°C° 0.1 mm 1 m/s 693 mmHg 74%
    10:00 +29°C° 0.1 mm 1 m/s 693 mmHg 65%
    11:00 +30°C° 0.4 mm 1 m/s 692 mmHg 62%
    12:00 +31°C° 0.4 mm 1 m/s 692 mmHg 59%
    13:00 +31°C° 0.4 mm 1 m/s 691 mmHg 56%
    14:00 +30°C° 0.6 mm 1 m/s 690 mmHg 64%
    15:00 +29°C° 0.6 mm 1 m/s 690 mmHg 71%
    16:00 +28°C° 0.6 mm 1 m/s 689 mmHg 79%
    17:00 +26°C° 0.6 mm 1 m/s 690 mmHg 84%
    18:00 +24°C° 0.6 mm 1 m/s 690 mmHg 89%
    19:00 +22°C° 0.6 mm 1 m/s 691 mmHg 94%
    20:00 +22°C° 0 mm 1 m/s 691 mmHg 95%
    21:00 +22°C° 0 mm 1 m/s 691 mmHg 96%
    22:00 +22°C° 0 mm 1 m/s 692 mmHg 97%
    23:00 +21°C° 0 mm 1 m/s 691 mmHg 97%

    16 Novembre, Vendredi

    Heure Température Précipitation Vent Pression Humidité
    00:00 +19°C° 0 mm 0 m/s 691 mmHg 97%
    01:00 +19°C° 0 mm 0 m/s 690 mmHg 98%
    02:00 +21°C° 0 mm 1 m/s 690 mmHg 98%
    03:00 +21°C° 0 mm 1 m/s 690 mmHg 98%
    04:00 +21°C° 0 mm 1 m/s 690 mmHg 98%
    05:00 +21°C° 0 mm 1 m/s 691 mmHg 98%
    06:00 +22°C° 0 mm 1 m/s 692 mmHg 97%
    07:00 +23°C° 0 mm 1 m/s 692 mmHg 96%
    08:00 +25°C° 0 mm 1 m/s 693 mmHg 86%
    09:00 +27°C° 0 mm 2 m/s 693 mmHg 75%
    10:00 +29°C° 0 mm 2 m/s 693 mmHg 65%
    11:00 +30°C° 0.3 mm 2 m/s 693 mmHg 63%
    12:00 +30°C° 0.3 mm 1 m/s 692 mmHg 61%
    13:00 +31°C° 0.3 mm 1 m/s 691 mmHg 59%
    14:00 +30°C° 1.1 mm 1 m/s 691 mmHg 66%
    15:00 +29°C° 1.1 mm 1 m/s 690 mmHg 73%
    16:00 +28°C° 1.1 mm 1 m/s 690 mmHg 80%
    17:00 +24°C° 0.7 mm 0 m/s 690 mmHg 84%
    18:00 +23°C° 0.7 mm 0 m/s 691 mmHg 87%
    19:00 +21°C° 0.7 mm 0 m/s 691 mmHg 91%
    20:00 +21°C° 0.1 mm 0 m/s 692 mmHg 92%
    21:00 +21°C° 0.1 mm 0 m/s 692 mmHg 92%
    22:00 +20°C° 0.1 mm 0 m/s 692 mmHg 93%
    23:00 +20°C° 0.2 mm 0 m/s 692 mmHg 94%

    17 Novembre, Samedi

    Heure Température Précipitation Vent Pression Humidité
    00:00 +20°C° 0.2 mm 0 m/s 692 mmHg 95%
    01:00 +20°C° 0.2 mm 0 m/s 691 mmHg 96%
    02:00 +20°C° 1 mm 0 m/s 691 mmHg 97%
    03:00 +20°C° 1 mm 0 m/s 691 mmHg 97%
    04:00 +20°C° 1 mm 0 m/s 691 mmHg 97%
    05:00 +20°C° 0.2 mm 0 m/s 691 mmHg 97%
    06:00 +20°C° 0.2 mm 0 m/s 692 mmHg 96%
    07:00 +21°C° 0.2 mm 0 m/s 692 mmHg 95%
    08:00 +23°C° 0.1 mm 0 m/s 693 mmHg 86%
    09:00 +25°C° 0.1 mm 0 m/s 693 mmHg 77%
    10:00 +28°C° 0.1 mm 0 m/s 693 mmHg 68%
    11:00 +28°C° 0.3 mm 0 m/s 693 mmHg 65%
    12:00 +29°C° 0.3 mm 0 m/s 692 mmHg 62%
    13:00 +29°C° 0.3 mm 0 m/s 691 mmHg 59%
    14:00 +31°C° 0.4 mm 1 m/s 690 mmHg 63%
    15:00 +30°C° 0.4 mm 1 m/s 690 mmHg 67%
    16:00 +29°C° 0.4 mm 1 m/s 689 mmHg 71%
    17:00 +27°C° 0.1 mm 1 m/s 690 mmHg 76%
    18:00 +25°C° 0.1 mm 1 m/s 690 mmHg 81%
    19:00 +24°C° 0.1 mm 1 m/s 690 mmHg 86%
    20:00 +23°C° 0 mm 1 m/s 691 mmHg 86%
    21:00 +23°C° 0 mm 1 m/s 691 mmHg 86%
    22:00 +23°C° 0 mm 1 m/s 691 mmHg 86%
    23:00 +23°C° 0.1 mm 1 m/s 691 mmHg 88%

    18 Novembre, Dimanche

    Heure Température Précipitation Vent Pression Humidité
    00:00 +22°C° 0.1 mm 1 m/s 691 mmHg 90%
    01:00 +22°C° 0.1 mm 1 m/s 691 mmHg 92%
    02:00 +22°C° 0.1 mm 1 m/s 691 mmHg 94%
    03:00 +22°C° 0.1 mm 1 m/s 690 mmHg 95%
    04:00 +22°C° 0.1 mm 1 m/s 690 mmHg 97%
    05:00 +22°C° 0 mm 1 m/s 691 mmHg 95%
    06:00 +23°C° 0 mm 1 m/s 692 mmHg 94%
    07:00 +23°C° 0 mm 1 m/s 692 mmHg 92%
    08:00 +25°C° 0.7 mm 1 m/s 692 mmHg 85%
    09:00 +27°C° 0.7 mm 1 m/s 692 mmHg 77%
    10:00 +29°C° 0.7 mm 1 m/s 692 mmHg 70%
    11:00 +29°C° 1.7 mm 1 m/s 691 mmHg 72%
    12:00 +29°C° 1.7 mm 1 m/s 690 mmHg 75%
    13:00 +29°C° 1.7 mm 1 m/s 690 mmHg 77%
    14:00 +28°C° 1.8 mm 1 m/s 689 mmHg 81%
    15:00 +28°C° 1.8 mm 1 m/s 689 mmHg 85%
    16:00 +27°C° 1.8 mm 1 m/s 689 mmHg 89%
    17:00 +26°C° 1 mm 1 m/s 689 mmHg 90%
    18:00 +22°C° 1 mm 0 m/s 690 mmHg 92%
    19:00 +21°C° 1 mm 0 m/s 690 mmHg 93%
    20:00 +23°C° 0.9 mm 1 m/s 691 mmHg 94%
    21:00 +23°C° 0.9 mm 1 m/s 691 mmHg 95%
    22:00 +22°C° 0.9 mm 1 m/s 692 mmHg 97%
    23:00 +22°C° 1 mm 1 m/s 691 mmHg 97%
    Voir plus